#timestamp,LO_Frequency,Hit,StdDev 
1581636395.8,286046987.4,P
1581636415.6,286046987.4,P
1581636435.5,286046989.5,P
1581636455.3,286046989.8,Y
1581636475.2,286047004.4,P
1581636495.9,286047003.8,N
1581636515.7,286047002.9,N
1581636535.6,286047006.7,N
1581636555.4,286047006.8,N
1581636575.2,286047004.1,N
1581636595.1,286046998.7,N
1581636596.0,286046998.7,N
1581636615.8,286046997.9,N
1581636635.7,286046993.4,N
1581636655.5,286046994.8,N
1581636675.3,286046993.8,N
1581636695.2,286046994.9,N
1581636715.0,286046998.7,N
1581636715.9,286046998.7,N
1581636735.8,286047001.5,N
1581636755.6,286047003.2,N
1581636775.4,286047005.3,N
1581636795.3,286047008.7,N
1581636815.1,286047011.7,N
1581636816.0,286047011.7,N
1581636835.8,286047011.3,N
1581636855.7,286047012.1,N
1581636875.5,286047014.0,N
1581636895.4,286047011.5,N
1581636915.2,286047011.1,N
1581636935.0,286047013.7,N
1581636935.9,286047013.7,N
1581636955.8,286047013.8,N
1581636975.6,286047013.6,N
1581636995.4,286047013.2,N
1581637015.3,286047015.0,N
1581637035.1,286047012.8,N
1581637055.9,286047012.9,N
1581637075.7,286047013.9,N
1581637095.5,286047011.5,N
1581637115.4,286047011.1,N
1581637135.2,286047011.8,N
1581637155.0,286047009.7,N
1581637155.9,286047009.7,N
1581637175.8,286047009.3,N
1581637195.6,286047006.7,N
1581637215.5,286047005.3,N
1581637235.3,286047002.6,N
1581637255.1,286046998.1,N
1581637275.9,286046998.9,N
1581637295.7,286046999.4,N
1581637315.5,286046997.3,N
1581637335.4,286046997.3,N
1581637355.2,286046997.6,N
1581637375.1,286046997.4,N
1581637376.0,286046997.4,N
1581637395.8,286046999.0,N
1581637415.6,286046998.6,N
1581637435.5,286046999.6,N
1581637455.3,286047001.2,N
1581637475.1,286046999.3,N
1581637495.9,286046997.5,N
1581637515.7,286046995.0,N
1581637535.6,286046997.3,N
1581637555.4,286046997.4,N
1581637575.2,286046997.9,N
1581637595.1,286046995.6,N
1581637596.0,286046995.6,N
1581637615.8,286046993.6,N
1581637635.7,286046994.1,N
1581637655.5,286046991.8,N
1581637675.3,286046992.9,N
1581637695.2,286046992.6,N
1581637715.0,286046992.3,N
1581637715.9,286046992.3,N
1581637735.7,286046992.6,N
1581637755.6,286046994.3,N
1581637775.4,286046992.9,N
1581637795.3,286046992.0,Y
1581637815.1,286046996.6,P
1581637835.8,286046996.8,P
1581637855.7,286046999.0,P
1581637875.5,286046998.3,N
1581637895.3,286046998.8,N
1581637915.2,286046999.3,N
1581637935.0,286046999.5,N
1581637935.9,286046999.5,N
1581637955.8,286046998.8,N
1581637975.6,286046997.4,N
1581637995.4,286046999.2,N
1581638015.3,286046996.7,N
1581638035.1,286046995.2,Y
1581638055.9,286046995.8,P
1581638075.7,286046996.1,P
1581638095.5,286046993.3,P
1581638115.4,286046993.9,Y
1581638135.2,286046997.3,P
1581638155.0,286046995.4,P
1581638155.9,286046995.4,P
1581638175.8,286046998.0,N
1581638195.6,286046995.9,Y
1581638215.5,286046999.6,P
1581638235.3,286046999.5,N
1581638255.1,286046999.6,N
1581638275.9,286046996.9,N
1581638295.7,286046998.4,N
1581638315.6,286046998.6,N
1581638335.4,286046999.3,N
1581638355.2,286046997.6,N
1581638375.1,286046997.7,N
1581638376.0,286046997.7,N
1581638395.8,286046995.1,Y
